Vicksburg, LA

6:16 AM CDT on June 27, 2017 (GMT -0500)
Vicksburg Tallulah Regional

Weather History for KTVR - September, 2014

Change the Weather History Date:

Wednesday, September 24, 2014

  Actual Average Record
Temperature  
Mean Temperature 69 °F 73 °F  
Max Temperature 84 °F 85 °F 96 °F (2016)
Min Temperature 54 °F 61 °F 45 °F (1982)
Degree Days  
Heating Degree Days 0 0  
Month to date heating degree days 0 0  
Since 1 July heating degree days 0 0  
Cooling Degree Days 4 8  
Month to date cooling degree days 328 264  
Year to date cooling degree days 1986 2053  
Growing Degree Days 18 (Base 50)    
Moisture  
Dew Point 58 °F    
Average Humidity 72    
Maximum Humidity 100    
Minimum Humidity 43    
Precipitation  
Precipitation 0.00 in 0.07 in 2.03 in (2013)
Month to date precipitation 0.98 2.34  
Year to date precipitation 45.22 38.91  
Sea Level Pressure  
Sea Level Pressure 30.18 in    
Wind  
Wind Speed 5 mph (ENE)    
Max Wind Speed 15 mph    
Max Gust Speed 20 mph    
Visibility 10 miles    
Events      
T = Trace of Precipitation, MM = Missing Value Source: NWS Daily Summary

Daily Weather History Graph

Daily Weather History Graph

Search for Another Location

Airport or City:

Trip Planner

Search our weather history database for the weather conditions in past years. The results will help you decide how hot, cold, wet, or windy it might be!

Date:

Astronomy

Sep. 24, 2014 Rise Set
Actual Time 6:53 AM CDT 6:58 PM CDT
Civil Twilight 6:29 AM CDT 7:22 PM CDT
Nautical Twilight 6:00 AM CDT 7:51 PM CDT
Astronomical Twilight 5:31 AM CDT 8:19 PM CDT
Moon 7:11 AM CDT (9/24) 7:12 PM CDT (9/24)
Length of Visible Light 12h 53m
Length of Day
12h 04m
New Moon, 0% of the Moon is Illuminated
Sep 24
New Moon
Oct 1
First Quarter
Oct 8
Full
Oct 15
Last Quarter
Oct 23
New

Hourly Weather History & Observations

Time (CDT) Temp. Heat Index Dew Point Humidity Pressure Visibility Wind Dir Wind Speed Gust Speed Precip Events Conditions
12:53 AM 55.9 °F - 54.0 °F 93% 30.14 in 10.0 mi Calm Calm - N/A   Clear
1:53 AM 55.9 °F - 54.0 °F 93% 30.14 in 10.0 mi Calm Calm - N/A   Clear
2:53 AM 60.1 °F - 55.9 °F 86% 30.14 in 10.0 mi NNE 3.5 mph - N/A   Clear
3:53 AM 60.1 °F - 55.9 °F 86% 30.14 in 10.0 mi NE 4.6 mph - N/A   Clear
4:53 AM 57.9 °F - 55.9 °F 93% 30.16 in 10.0 mi NNE 3.5 mph - N/A   Clear
5:53 AM 54.0 °F - 53.1 °F 97% 30.17 in 10.0 mi Calm Calm - N/A   Clear
6:53 AM 55.0 °F - 54.0 °F 96% 30.18 in 10.0 mi Calm Calm - N/A   Clear
7:53 AM 62.1 °F - 59.0 °F 90% 30.19 in 10.0 mi Calm Calm - N/A   Clear
8:53 AM 71.1 °F - 60.1 °F 68% 30.21 in 10.0 mi ESE 10.4 mph - N/A   Clear
9:53 AM 73.9 °F - 61.0 °F 64% 30.23 in 10.0 mi ESE 11.5 mph - N/A   Clear
10:53 AM 78.1 °F - 61.0 °F 56% 30.23 in 10.0 mi ESE 12.7 mph - N/A   Clear
11:53 AM 80.1 °F 81.1 °F 61.0 °F 52% 30.22 in 10.0 mi ENE 10.4 mph - N/A   Clear
12:53 PM 82.0 °F 82.1 °F 59.0 °F 45% 30.20 in 10.0 mi East 8.1 mph 18.4 mph N/A   Clear
1:53 PM 81.0 °F 81.3 °F 59.0 °F 47% 30.19 in 10.0 mi East 11.5 mph - N/A   Scattered Clouds
2:53 PM 82.9 °F 82.4 °F 57.0 °F 41% 30.17 in 10.0 mi East 9.2 mph - N/A   Partly Cloudy
3:53 PM 82.9 °F 82.4 °F 57.0 °F 41% 30.15 in 10.0 mi East 6.9 mph - N/A   Clear
4:53 PM 81.0 °F 81.1 °F 57.9 °F 45% 30.14 in 10.0 mi East 5.8 mph - N/A   Partly Cloudy
5:53 PM 82.0 °F 82.0 °F 57.9 °F 44% 30.15 in 10.0 mi NE 5.8 mph - N/A   Clear
6:53 PM 73.9 °F - 62.1 °F 66% 30.16 in 10.0 mi NNE 5.8 mph - N/A   Clear
7:53 PM 70.0 °F - 61.0 °F 73% 30.17 in 10.0 mi NE 5.8 mph - N/A   Clear
8:53 PM 70.0 °F - 62.1 °F 76% 30.18 in 10.0 mi ENE 6.9 mph - N/A   Clear
9:53 PM 64.0 °F - 61.0 °F 90% 30.19 in 10.0 mi Calm Calm - N/A   Clear
10:53 PM 61.0 °F - 59.0 °F 93% 30.19 in 10.0 mi Calm Calm - N/A   Clear
11:53 PM 59.0 °F - 57.0 °F 93% 30.19 in 10.0 mi Calm Calm - N/A   Clear